RH
65 20 13 22 28 30 31 29 28 25 22 20 18 18 18 19 18 18 15 13 11 10 9 8 7 9 10 9 6 7 8 8 7 7 8 9 11 14 20 22 22 22 20 17 16 14 14
75 45 16 24 31 32 32 31 29 26 23 21 20 20 20 21 20 18 15 12 11 9 8 7 7 10 10 10 6 8 8 9 8 8 8 9 16 23 25 27 27 27 26 25 24 24 23
80 66 20 26 37 39 34 32 29 28 25 24 23 23 24 23 20 17 14 11 9 8 7 7 8 12 11 12 7 8 10 10 10 9 10 12 24 27 23 22 28 28 27 27 25 23 21
88 50 29 28 37 44 40 36 34 32 29 27 26 27 26 23 19 16 12 10 9 8 8 8 10 13 12 14 9 9 10 11 10 10 12 16 27 31 28 22 18 21 24 24 22 21 20
77 76 28 28 40 46 46 42 39 36 33 32 31 30 27 23 18 14 11 10 9 10 10 11 12 13 13 15 12 10 11 12 12 11 12 15 20 25 23 20 16 15 16 16 17 17 15
99 71 33 31 38 45 48 46 43 40 38 35 33 30 26 21 16 12 10 10 11 12 11 11 13 13 14 17 15 11 12 13 12 11 12 13 15 16 16 15 16 15 14 15 13 14 14
98 98 70 36 35 44 43 45 44 41 38 36 32 26 21 18 14 12 11 11 13 13 11 11 14 15 14 18 19 13 12 13 13 13 12 13 14 15 14 15 15 15 14 14 14 14 14
58 86 98 41 38 42 43 40 40 38 35 32 28 24 20 16 14 14 13 13 15 13 12 11 11 15 17 20 21 16 13 13 14 14 13 14 14 15 15 16 16 16 16 16 14 14 14
71 73 100 52 42 40 41 39 37 34 32 30 26 22 20 18 17 16 16 18 16 15 13 13 12 12 17 22 24 21 14 13 14 15 15 15 15 16 16 16 17 17 17 17 16 16 15
82 88 98 49 42 40 37 36 31 30 28 25 24 22 22 22 19 18 18 17 16 15 13 13 12 14 17 20 22 23 20 15 14 15 16 17 17 18 18 19 20 19 19 17 16 16 15
91 91 70 42 40 40 35 32 29 28 26 25 25 25 25 24 22 21 20 19 18 18 14 15 14 14 15 17 20 22 22 20 18 17 17 18 19 20 20 21 21 21 20 18 16 16 15
99 98 63 43 38 38 33 31 28 26 26 26 26 27 27 26 24 25 24 23 22 21 20 19 17 15 15 14 15 18 21 22 22 21 21 20 21 21 21 21 21 19 18 16 16 16 16
99 98 62 42 39 39 33 30 30 29 28 28 28 28 27 28 30 30 28 26 24 23 21 19 18 18 17 16 15 16 18 19 20 21 21 21 21 21 20 20 19 18 18 18 17 17 17
96 94 49 47 42 38 34 30 29 29 28 30 31 31 31 30 31 32 31 29 28 27 25 23 21 19 18 19 18 18 18 18 19 19 19 18 18 19 19 20 20 21 21 23 23 22 22
100 93 51 51 42 38 35 32 30 30 29 29 31 32 32 32 33 33 32 31 29 30 29 27 25 23 22 22 22 22 22 23 24 24 25 24 23 24 24 25 27 27 29 30 30 28 27
100 95 92 85 47 39 37 35 34 31 31 30 33 34 35 32 31 31 31 29 26 26 26 27 28 27 27 26 26 26 25 25 26 27 28 28 26 27 28 30 30 31 31 32 33 31 30
97 94 90 98 81 44 36 36 38 36 36 36 36 34 37 33 31 31 30 29 29 30 30 29 30 28 28 28 29 29 28 28 30 31 31 31 29 27 29 28 29 28 28 28 29 28 28
97 98 99 96 78 69 53 62 60 47 49 47 43 46 43 39 36 32 32 32 31 31 30 30 31 33 34 33 32 34 37 39 40 41 41 41 37 34 37 39 43 45 47 58 74 75 88
99 96 96 90 94 61 54 51 59 74 79 70 56 51 47 38 43 56 51 45 40 35 34 40 52 62 72 82 74 67 56 47 42 44 45 50 58 61 56 58 61 68 77 88 95 96 88
94 99 98 98 95 91 94 95 93 92 90 86 84 79 79 78 75 74 70 70 68 67 72 75 74 79 84 88 88 80 83 82 81 79 79 81 82 91 91 97 94 92 99 100 100 94 95
96 97 98 97 96 91 92 93 90 90 88 89 87 80 74 70 69 68 68 68 72 75 83 83 77 78 79 78 81 86 84 83 83 88 89 88 77 73 69 64 64 67 68 63 50 38 39
100 100 100 96 87 92 97 95 90 86 89 86 81 74 68 64 64 64 66 65 66 70 72 73 71 72 74 74 73 68 63 53 44 36 24 18 12 13 12 7 5 7 5 4 4 3 3
98 100 100 98 94 94 92 92 88 84 80 75 64 60 63 68 69 70 70 69 72 71 67 63 57 49 44 36 28 22 15 9 10 8 5 4 4 3 4 3 3 4 3 3 3 4 4
100 100 99 93 88 78 76 77 78 75 75 73 65 63 66 68 69 64 59 54 48 40 33 30 22 17 12 8 6 5 4 4 3 3 3 3 3 3 3 3 3 3 2 2 3 3 3
100 98 97 97 90 84 78 75 79 78 79 79 76 68 62 56 49 38 30 23 22 14 9 7 5 4 4 4 3 3 3 3 3 3 3 4 4 4 4 4 4 4 4 5 4 4 5
100 100 98 91 77 82 90 92 89 87 80 66 56 38 31 29 19 17 11 6 5 4 4 4 4 4 4 4 4 5 5 5 6 5 6 7 7 8 8 7 5 6 10 9 9 8 9
95 88 91 97 97 96 93 89 72 61 56 37 26 14 7 6 4 4 4 4 4 4 5 5 5 6 6 7 8 8 9 9 9 9 9 10 10 11 12 13 10 20 20 24 22 18 18
99 99 100 98 94 90 79 73 36 17 8 6 5 5 5 5 4 4 4 4 5 5 6 7 8 9 9 11 12 12 10 11 11 12 13 14 17 18 22 26 28 31 36 39 36 35 32
97 99 100 93 61 12 11 19 26 21 10 7 7 8 8 9 9 9 9 10 11 12 13 12 14 15 14 14 14 14 13 12 13 13 14 18 25 29 42 26 49 59 57 55 56 51 37
Wind_Speed
15 14 17 17 19 19 19 19 18 18 17 18 18 17 16 16 16 16 17 17 18 19 18 17 17 14 13 12 12 12 13 13 14 13 13 13 12 10 9 10 9 9 10 12 13 14 15
18 16 18 19 20 20 20 19 19 19 18 18 18 18 17 18 18 18 19 19 20 19 18 18 16 14 14 13 13 13 12 12 12 13 13 11 7 6 6 6 5 5 5 6 7 7 7
18 18 19 21 21 21 22 21 21 20 19 19 20 19 19 20 20 20 20 20 19 18 18 17 15 15 15 15 14 13 11 12 12 13 12 8 4 5 6 7 6 6 6 6 7 7 8
20 21 20 22 23 22 22 22 21 21 21 21 21 20 21 22 22 22 20 19 18 17 17 16 15 16 16 16 14 13 12 12 12 12 10 7 6 7 8 9 10 9 9 10 10 12 12
21 24 21 24 23 23 23 22 22 21 22 22 23 23 23 23 23 21 20 18 17 15 16 16 15 16 15 16 15 14 13 12 12 11 10 8 8 9 11 11 10 11 12 13 13 14 15
23 27 22 24 25 25 24 24 23 23 23 24 24 25 24 24 21 20 19 17 15 14 15 15 16 16 15 16 15 15 14 13 12 11 10 10 9 11 12 12 12 12 13 14 16 15 17
28 19 29 26 26 26 26 26 25 25 25 24 24 24 23 22 20 19 18 16 14 14 14 15 15 15 16 17 17 16 16 14 13 12 11 11 11 12 12 12 12 13 14 15 17 17 18
28 27 24 26 26 26 26 26 26 24 24 23 22 21 21 20 19 17 16 15 15 14 14 14 14 15 17 18 18 18 17 17 16 15 15 15 15 15 15 16 16 16 17 18 19 20 21
26 28 24 28 27 25 26 26 25 23 22 22 21 20 19 18 17 17 16 16 17 16 15 16 16 16 16 18 18 19 19 19 20 20 20 20 20 20 20 21 21 21 22 23 25 26 26
27 28 27 27 27 24 24 24 23 22 21 20 19 18 18 17 17 16 16 16 17 17 16 17 17 17 17 18 18 20 20 21 22 23 24 25 24 24 25 25 26 27 28 29 30 31 32
26 26 29 27 25 23 23 22 22 21 19 19 18 17 17 17 16 16 17 17 17 19 19 17 15 14 15 17 18 19 21 22 22 25 27 27 28 29 29 28 30 32 32 33 34 35 37
20 26 27 25 22 22 23 22 20 19 18 18 17 17 17 17 17 17 19 20 20 20 21 19 19 18 17 18 20 21 22 23 24 25 27 28 30 30 31 33 34 34 35 37 38 38 41
22 26 27 24 23 23 23 21 19 18 18 18 18 17 18 17 18 19 20 21 21 19 21 21 20 20 19 19 20 20 21 23 25 27 27 29 30 31 32 34 34 35 35 38 41 41 42
26 30 26 23 23 23 22 19 18 18 18 19 18 18 18 19 20 20 21 21 21 21 21 22 22 22 21 22 22 22 22 23 24 27 29 30 31 31 32 33 35 34 34 36 42 42 43
26 33 25 25 24 23 22 20 19 19 19 19 19 19 20 20 21 21 22 23 24 24 24 24 24 25 23 24 26 26 27 27 27 29 31 34 34 33 33 34 35 35 35 36 41 44 46
23 28 29 28 22 22 21 20 20 20 20 20 20 20 21 21 21 22 23 24 25 25 25 26 26 28 27 27 29 30 32 31 32 33 35 37 40 38 37 38 37 38 40 41 42 48 52
25 27 30 29 24 20 19 19 19 20 20 20 21 20 22 23 23 24 25 25 26 26 26 27 27 29 29 31 31 33 35 35 35 36 37 40 42 43 43 42 42 42 43 44 46 49 53
19 20 24 24 21 22 19 17 18 19 20 21 22 23 24 25 25 26 27 28 27 27 27 28 28 28 30 33 35 36 37 38 40 39 40 41 44 46 46 46 45 45 46 46 48 51 56
21 20 19 18 20 20 19 20 22 25 25 24 26 26 25 26 26 28 29 29 29 28 29 30 32 34 35 36 38 39 39 39 40 41 42 42 45 47 50 49 50 51 52 55 59 62 63
17 17 19 22 21 22 21 20 20 20 21 21 20 21 20 22 23 24 25 27 30 31 33 33 34 36 37 36 36 38 39 41 42 44 46 48 49 51 52 53 56 59 60 60 61 63 59
13 12 13 15 15 17 18 21 21 19 18 17 19 22 22 22 24 25 27 29 29 30 31 31 33 34 34 35 36 36 37 39 40 41 42 44 45 46 47 48 51 53 54 55 56 56 61
11 11 13 16 19 18 16 16 18 18 18 20 22 24 24 26 26 26 26 28 29 29 30 31 32 32 33 34 36 38 39 41 41 43 45 47 48 50 51 50 52 55 55 56 57 57 59
15 14 13 12 14 15 18 20 21 21 21 24 25 26 26 26 27 26 26 26 27 28 30 32 33 33 35 37 38 40 41 42 44 44 45 46 47 49 51 51 54 56 56 59 60 61 62
18 15 14 13 13 14 16 17 19 21 23 24 24 23 22 22 22 23 25 26 27 29 31 32 33 34 35 37 38 40 41 42 42 43 43 45 47 49 52 51 54 57 57 57 59 61 64
18 15 14 14 14 16 18 20 23 24 24 23 22 23 23 23 24 25 26 27 29 30 32 33 33 34 35 37 39 41 43 44 44 46 47 49 52 55 55 57 57 56 55 53 55 57 60
14 15 16 18 20 20 21 22 23 22 22 20 21 21 23 25 26 28 28 29 30 30 32 33 35 37 39 42 44 45 46 48 50 52 52 54 55 56 55 57 61 59 55 55 55 57 55
16 17 16 18 20 20 20 20 18 19 19 20 20 22 25 26 27 29 31 33 34 36 38 41 44 44 45 48 49 50 50 52 53 54 55 57 57 55 53 56 58 53 52 51 50 50 48
14 16 18 18 17 16 15 16 16 17 19 21 23 25 27 28 31 33 36 38 42 44 46 47 48 50 53 53 54 53 57 56 56 54 55 56 56 53 54 53 55 53 52 52 47 42 42
14 15 13 10 9 10 12 15 18 20 22 24 27 28 30 33 36 38 40 42 43 42 46 48 49 51 55 56 57 57 57 58 57 57 58 58 56 56 54 54 51 52 52 50 48 47 44
Wind_Direction
269 267 250 226 223 218 218 220 220 221 222 223 227 233 241 252 260 268 274 279 281 284 286 286 284 290 294 282 279 292 299 307 308 309 306 300 299 301 305 295 284 275 268 264 261 259 257
265 254 252 232 225 222 225 225 226 224 227 229 234 241 251 259 266 274 278 279 281 282 282 279 279 289 284 277 277 289 294 304 310 316 310 305 304 310 307 303 301 286 267 258 253 251 244
258 242 249 236 226 223 223 225 229 232 233 236 241 246 255 265 272 278 280 280 280 281 280 278 277 286 277 273 275 283 288 299 312 314 308 307 295 295 302 300 294 289 286 282 272 270 266
252 241 241 237 230 226 225 226 228 231 236 240 246 253 261 268 276 277 277 276 276 280 283 279 272 283 272 270 273 278 281 293 308 310 306 298 282 282 290 297 298 287 283 284 284 285 284
253 235 234 237 229 229 229 230 231 234 238 245 252 258 264 270 274 274 274 276 276 281 281 275 271 279 264 267 273 274 273 285 301 306 300 290 280 277 283 289 293 292 290 285 283 283 284
245 218 232 236 230 230 231 232 236 239 244 250 257 264 270 274 274 276 275 274 272 277 275 276 269 271 267 268 269 270 269 276 291 298 291 285 281 279 284 288 289 288 285 288 288 285 286
246 267 215 231 231 230 232 235 237 242 249 255 261 267 271 274 276 277 276 271 268 276 281 279 278 276 265 266 270 268 264 269 277 284 282 278 273 275 280 283 286 288 289 287 287 287 287
255 269 264 226 230 231 234 238 241 244 251 257 262 267 271 275 277 276 273 268 266 273 283 284 280 275 268 265 268 268 266 267 270 274 275 271 271 272 276 282 285 289 291 291 291 290 290
244 248 252 219 230 230 234 238 242 246 251 256 261 265 270 273 273 272 267 263 265 268 272 280 277 273 269 267 268 270 268 266 267 269 270 270 271 272 274 278 282 286 291 292 291 289 291
255 250 222 216 230 230 234 238 242 247 251 256 261 264 264 264 265 264 263 262 266 270 272 275 277 275 273 270 270 268 268 268 267 268 269 271 272 272 275 278 282 284 287 289 290 289 290
250 259 207 219 226 231 235 237 241 245 250 254 256 257 260 261 263 262 263 265 268 271 280 280 283 281 276 275 272 270 271 270 270 269 270 273 272 274 275 279 281 286 284 287 289 288 288
255 241 205 218 221 229 234 236 240 244 248 252 255 258 262 264 265 264 265 268 271 277 284 283 282 280 279 278 275 272 273 272 272 271 272 273 273 275 278 280 283 285 286 288 287 287 284
245 223 206 218 220 229 232 235 239 244 248 251 256 259 261 264 266 267 271 274 277 280 282 282 280 279 281 282 282 280 278 277 276 276 275 275 277 279 280 282 283 285 286 288 286 287 288
245 203 213 218 223 229 232 235 241 245 249 252 255 259 262 264 268 272 275 276 278 277 277 279 279 279 280 281 279 280 280 279 279 279 280 279 279 281 283 284 286 285 286 285 287 288 290
227 200 209 217 226 228 233 236 242 247 251 255 257 258 261 266 271 274 277 278 278 276 276 278 279 278 277 276 277 277 276 276 277 278 281 283 283 282 282 283 283 285 284 284 284 285 286
214 209 215 211 224 230 234 240 246 252 256 259 260 263 267 270 273 276 278 278 279 277 276 275 276 276 276 275 275 275 275 277 277 276 277 279 281 280 280 279 280 280 280 282 282 284 284
214 214 219 218 216 230 236 244 250 257 260 263 266 267 270 272 274 275 276 276 276 277 278 278 278 279 279 279 278 278 278 279 277 278 278 278 279 282 282 282 280 278 278 278 278 279 283
221 219 219 213 224 233 237 246 257 261 265 268 271 273 274 276 275 276 276 277 277 277 277 277 278 280 283 283 281 280 281 280 281 280 279 279 280 281 281 281 281 281 279 278 278 281 280
215 208 215 223 228 235 241 249 259 264 269 274 276 275 274 273 277 280 278 278 279 278 277 278 280 283 285 283 283 281 280 279 277 277 278 280 280 282 282 283 283 281 281 282 283 283 283
216 222 229 233 235 248 256 260 263 267 268 272 278 279 280 278 281 284 284 281 278 279 280 281 281 282 284 283 282 284 284 282 281 280 280 281 282 283 283 283 282 281 282 283 283 283 284
215 230 241 246 250 260 266 274 276 267 269 273 283 288 288 290 291 290 288 287 285 284 284 285 284 284 282 283 282 283 285 286 286 286 285 284 284 284 284 284 284 284 285 284 285 284 281
234 243 256 261 265 270 273 270 274 278 275 282 288 289 290 289 288 290 290 291 291 290 290 289 289 289 287 285 285 287 287 287 287 286 285 286 287 286 285 287 286 284 286 286 286 285 285
239 248 245 251 267 276 277 278 280 283 284 288 292 292 294 294 292 293 294 293 293 293 293 292 292 293 293 292 291 290 289 287 287 287 288 288 288 288 287 288 286 286 286 286 287 287 285
240 225 243 258 263 275 282 286 293 298 295 294 298 300 301 300 301 299 297 295 294 293 291 290 290 289 289 288 288 288 289 290 291 291 291 292 293 293 293 295 293 295 297 298 295 292 289
221 234 248 261 269 278 286 288 289 293 291 289 294 299 299 297 297 294 293 293 292 291 290 291 291 291 290 290 291 291 291 289 290 292 294 296 297 298 298 297 297 301 300 296 294 294 291
227 242 256 268 280 287 289 287 288 289 290 292 296 296 295 295 293 293 292 290 290 290 291 293 294 294 294 294 295 296 296 297 299 300 300 301 300 300 302 302 303 302 299 299 298 296 292
241 255 267 277 282 283 283 283 284 287 291 293 295 296 297 296 296 295 295 296 296 296 298 298 296 295 296 297 298 300 301 301 301 302 302 300 298 297 296 296 297 297 296 295 291 295 291
250 261 264 265 271 278 281 285 291 291 291 292 294 297 300 301 300 299 298 298 298 299 299 299 298 299 298 301 302 303 301 301 300 301 298 296 294 294 292 293 294 296 292 290 293 291 291
253 261 257 258 274 277 281 283 286 292 297 303 306 308 308 308 307 306 305 303 304 303 302 302 304 304 305 303 303 303 303 302 301 298 295 291 290 289 288 292 292 289 287 289 289 287 285